Datetime-UTC, Datetime-J2000, North, East, Up
2024/03/22 00:00:00, 764337600.00, 0.000000, 0.000000, 0.000000
2024/03/22 00:05:00, 764337900.00, -0.019000, -0.012300, 0.002800
2024/03/22 00:10:00, 764338200.00, -0.009600, -0.009800, -0.008100
2024/03/22 00:15:00, 764338500.00, -0.013200, -0.003900, 0.002700
2024/03/22 00:20:00, 764338800.00, -0.011200, -0.007200, 0.024300
2024/03/22 00:25:00, 764339100.00, 0.005100, 0.002800, 0.010000
2024/03/22 00:30:00, 764339400.00, -0.003000, -0.003800, 0.009400
2024/03/22 00:35:00, 764339700.00, -0.013000, -0.007300, 0.031700
2024/03/22 00:40:00, 764340000.00, -0.025100, -0.007100, 0.029800
2024/03/22 00:45:00, 764340300.00, -0.010200, -0.015800, 0.024600
2024/03/22 00:50:00, 764340600.00, -0.005100, -0.006000, 0.010200
2024/03/22 00:55:00, 764340900.00, 0.001300, -0.000600, 0.014500
2024/03/22 01:00:00, 764341200.00, -0.000600, 0.013900, -0.001400
2024/03/22 01:05:00, 764341500.00, -0.011100, -0.004000, 0.007500
2024/03/22 01:10:00, 764341800.00, -0.029600, -0.007800, 0.026400
2024/03/22 01:15:00, 764342100.00, -0.020000, 0.000600, -0.005400
2024/03/22 01:20:00, 764342400.00, 0.011300, 0.020100, 0.003700
2024/03/22 01:25:00, 764342700.00, -0.006000, 0.011900, 0.003300
2024/03/22 01:30:00, 764343000.00, -0.013000, -0.000900, 0.000100
2024/03/22 01:35:00, 764343300.00, -0.003600, 0.010700, 0.006400
2024/03/22 01:40:00, 764343600.00, -0.001000, 0.013300, -0.019300
2024/03/22 01:45:00, 764343900.00, -0.010500, 0.005600, 0.003600
2024/03/22 01:50:00, 764344200.00, -0.001400, 0.016000, -0.004700
2024/03/22 01:55:00, 764344500.00, 0.019700, 0.019700, -0.031600
2024/03/22 02:00:00, 764344800.00, 0.007900, 0.013900, -0.001900
2024/03/22 02:05:00, 764345100.00, -0.004800, 0.013500, 0.005000
2024/03/22 02:10:00, 764345400.00, -0.001500, 0.016900, -0.003500
2024/03/22 02:15:00, 764345700.00, 0.009900, 0.017300, -0.017100
2024/03/22 02:20:00, 764346000.00, 0.000700, 0.014800, -0.011600
2024/03/22 02:25:00, 764346300.00, 0.004400, 0.025600, -0.017800
2024/03/22 02:30:00, 764346600.00, -0.011300, 0.018200, -0.016000
2024/03/22 02:35:00, 764346900.00, 0.003000, 0.022100, 0.008300
2024/03/22 02:40:00, 764347200.00, -0.004100, 0.022000, -0.024700
2024/03/22 02:45:00, 764347500.00, -0.004300, 0.024800, -0.008700
2024/03/22 02:50:00, 764347800.00, 0.016100, 0.017600, -0.016700
2024/03/22 02:55:00, 764348100.00, -0.003300, 0.016000, 0.000000
2024/03/22 03:00:00, 764348400.00, -0.009600, 0.012900, -0.010400
2024/03/22 03:05:00, 764348700.00, 0.003100, 0.019300, -0.035200
2024/03/22 03:10:00, 764349000.00, 0.018100, 0.022100, 0.010200
2024/03/22 03:15:00, 764349300.00, -0.010400, 0.009800, -0.019900
2024/03/22 03:20:00, 764349600.00, -0.003300, 0.019800, 0.006500
2024/03/22 03:25:00, 764349900.00, 0.014100, 0.023200, -0.033300
2024/03/22 03:30:00, 764350200.00, 0.022200, 0.005800, -0.008200
2024/03/22 03:35:00, 764350500.00, 0.001700, 0.005100, -0.011200
2024/03/22 03:40:00, 764350800.00, 0.008600, 0.020400, -0.031000
2024/03/22 03:45:00, 764351100.00, -0.017100, 0.002700, 0.002700
2024/03/22 03:50:00, 764351400.00, -0.001300, 0.011200, 0.008200
2024/03/22 03:55:00, 764351700.00, -0.005100, 0.002800, 0.010900
2024/03/22 04:00:00, 764352000.00, 0.010500, 0.015000, -0.005500
2024/03/22 04:05:00, 764352300.00, 0.005900, 0.020900, -0.013800
2024/03/22 04:10:00, 764352600.00, 0.002200, 0.002900, 0.001400
2024/03/22 04:15:00, 764352900.00, 0.011500, 0.014800, -0.006800
2024/03/22 04:20:00, 764353200.00, 0.020000, 0.016100, -0.008900
2024/03/22 04:25:00, 764353500.00, 0.003400, 0.000700, -0.010300
2024/03/22 04:30:00, 764353800.00, -0.003400, 0.018800, 0.000200
2024/03/22 04:35:00, 764354100.00, 0.004800, -0.000300, 0.002800
2024/03/22 04:40:00, 764354400.00, -0.001400, 0.021500, -0.005200
2024/03/22 04:45:00, 764354700.00, 0.000000, 0.014400, -0.020900
2024/03/22 04:50:00, 764355000.00, 0.008500, 0.004700, -0.002300
2024/03/22 04:55:00, 764355300.00, -0.000600, 0.008400, -0.031700
2024/03/22 05:00:00, 764355600.00, -0.012800, 0.011000, -0.026300
2024/03/22 05:05:00, 764355900.00, 0.010300, 0.017700, 0.003600
2024/03/22 05:10:00, 764356200.00, -0.005800, 0.000800, 0.032500
2024/03/22 05:15:00, 764356500.00, 0.012200, 0.026300, 0.009800
2024/03/22 05:20:00, 764356800.00, 0.007000, 0.008800, 0.004600
2024/03/22 05:25:00, 764357100.00, -0.004300, 0.011000, -0.035200
2024/03/22 05:30:00, 764357400.00, 0.011200, 0.030900, -0.019400
2024/03/22 05:35:00, 764357700.00, 0.013600, 0.008700, 0.006000
2024/03/22 05:40:00, 764358000.00, 0.012000, 0.023300, -0.055800
2024/03/22 05:45:00, 764358300.00, -0.012000, 0.021400, -0.069600
2024/03/22 05:50:00, 764358600.00, 0.012200, 0.015900, -0.035400
2024/03/22 05:55:00, 764358900.00, -0.009000, 0.016200, -0.047600
2024/03/22 06:00:00, 764359200.00, -0.015100, 0.026400, -0.051500
2024/03/22 06:05:00, 764359500.00, 0.018300, 0.034700, -0.063100
2024/03/22 06:10:00, 764359800.00, 0.010900, 0.034700, -0.019900
2024/03/22 06:15:00, 764360100.00, 0.006400, 0.028200, -0.065200
2024/03/22 06:20:00, 764360400.00, 0.004400, 0.026400, -0.023700
2024/03/22 06:25:00, 764360700.00, 0.010000, 0.017000, -0.041900
2024/03/22 06:30:00, 764361000.00, 0.039400, 0.020600, -0.035000
2024/03/22 06:35:00, 764361300.00, 0.028700, 0.023500, -0.020000
2024/03/22 06:40:00, 764361600.00, 0.007100, 0.018100, -0.034800
2024/03/22 06:45:00, 764361900.00, 0.002000, 0.006500, 0.000400
2024/03/22 06:50:00, 764362200.00, 0.019700, 0.014300, -0.017900
2024/03/22 06:55:00, 764362500.00, 0.014900, 0.014500, -0.033700
2024/03/22 07:00:00, 764362800.00, 0.036800, 0.017900, -0.058000
2024/03/22 07:05:00, 764363100.00, 0.022200, 0.015000, -0.069100
2024/03/22 07:10:00, 764363400.00, 0.033900, -0.000900, -0.098000
2024/03/22 07:15:00, 764363700.00, 0.021700, -0.013000, -0.084900
2024/03/22 07:20:00, 764364000.00, 0.015900, 0.000800, -0.015000
2024/03/22 07:25:00, 764364300.00, -0.002600, 0.018100, 0.042200
2024/03/22 07:30:00, 764364600.00, -0.005100, 0.000900, 0.014300
2024/03/22 07:35:00, 764364900.00, 0.005600, -0.003300, -0.005400
2024/03/22 07:40:00, 764365200.00, -0.001200, 0.001400, -0.044700
2024/03/22 07:45:00, 764365500.00, -0.018700, 0.007500, -0.017600
2024/03/22 07:50:00, 764365800.00, -0.005000, 0.012400, -0.019600
2024/03/22 07:55:00, 764366100.00, -0.007600, 0.017800, -0.023800
2024/03/22 08:00:00, 764366400.00, 0.001300, 0.008500, 0.021300
2024/03/22 08:05:00, 764366700.00, 0.018600, -0.001600, 0.042500
2024/03/22 08:10:00, 764367000.00, 0.003100, 0.004000, -0.024100
2024/03/22 08:15:00, 764367300.00, -0.003500, 0.010100, 0.007600
2024/03/22 08:20:00, 764367600.00, 0.006000, 0.011100, -0.014600
2024/03/22 08:25:00, 764367900.00, -0.016300, 0.014100, -0.040400
2024/03/22 08:30:00, 764368200.00, 0.016600, 0.019800, 0.026600
2024/03/22 08:35:00, 764368500.00, 0.002500, 0.019000, -0.029700
2024/03/22 08:40:00, 764368800.00, 0.016000, 0.012200, -0.072700
2024/03/22 08:50:00, 764369400.00, -0.025300, 0.014200, -0.091900
2024/03/22 08:55:00, 764369700.00, 0.018200, 0.016500, -0.030300
2024/03/22 09:00:00, 764370000.00, 0.022200, 0.017600, -0.034600
2024/03/22 09:05:00, 764370300.00, 0.016600, 0.026000, -0.022200
2024/03/22 09:10:00, 764370600.00, 0.012400, 0.022000, -0.006200
2024/03/22 09:15:00, 764370900.00, 0.016200, 0.020500, -0.021100
2024/03/22 09:20:00, 764371200.00, 0.008500, 0.013100, -0.013700
2024/03/22 09:25:00, 764371500.00, 0.005800, 0.026000, -0.081800
2024/03/22 09:30:00, 764371800.00, 0.019800, 0.042900, -0.051800
2024/03/22 09:35:00, 764372100.00, 0.029400, 0.018000, -0.045100
2024/03/22 09:40:00, 764372400.00, 0.021400, 0.040500, -0.003200
2024/03/22 09:45:00, 764372700.00, 0.031100, 0.016100, 0.010500
2024/03/22 09:50:00, 764373000.00, -0.011500, 0.025000, -0.009500
2024/03/22 09:55:00, 764373300.00, -0.003200, -0.004500, -0.047700
2024/03/22 10:00:00, 764373600.00, 0.006700, 0.013200, -0.009300
2024/03/22 10:05:00, 764373900.00, 0.017000, 0.007800, -0.024100
2024/03/22 10:10:00, 764374200.00, -0.006500, 0.023600, 0.015800
2024/03/22 10:15:00, 764374500.00, -0.038900, 0.016700, 0.034900
2024/03/22 10:20:00, 764374800.00, -0.014300, 0.021600, 0.027500
2024/03/22 10:25:00, 764375100.00, -0.002600, 0.016800, 0.004000
2024/03/22 10:30:00, 764375400.00, -0.025400, 0.009400, 0.001800
2024/03/22 10:35:00, 764375700.00, 0.005200, 0.015600, 0.007600
2024/03/22 10:40:00, 764376000.00, -0.009800, 0.027100, 0.003100
2024/03/22 10:45:00, 764376300.00, 0.019200, 0.030800, 0.003400
2024/03/22 10:50:00, 764376600.00, 0.006400, 0.032000, 0.000100
2024/03/22 10:55:00, 764376900.00, -0.004900, 0.025000, -0.030200
2024/03/22 11:00:00, 764377200.00, -0.009300, 0.022000, -0.004200
2024/03/22 11:05:00, 764377500.00, 0.001800, 0.025900, 0.002800
2024/03/22 11:10:00, 764377800.00, -0.004100, 0.022700, -0.009500
2024/03/22 11:15:00, 764378100.00, -0.007400, 0.028200, -0.046300
2024/03/22 11:20:00, 764378400.00, 0.007800, 0.031000, -0.029600
2024/03/22 11:25:00, 764378700.00, 0.010100, 0.031400, 0.002200
2024/03/22 11:30:00, 764379000.00, 0.002800, 0.021500, 0.006500
2024/03/22 11:35:00, 764379300.00, 0.010800, 0.031300, 0.030200
2024/03/22 11:40:00, 764379600.00, 0.005500, 0.023900, 0.031000
2024/03/22 11:45:00, 764379900.00, -0.006700, 0.023400, 0.033400
2024/03/22 11:50:00, 764380200.00, -0.019400, 0.043200, 0.037200
2024/03/22 11:55:00, 764380500.00, 0.016000, 0.026400, 0.024200
2024/03/22 12:00:00, 764380800.00, 0.001800, 0.030900, -0.009100
2024/03/22 12:05:00, 764381100.00, -0.003700, 0.027300, 0.037400
2024/03/22 12:10:00, 764381400.00, -0.023200, 0.016200, 0.058300
2024/03/22 12:15:00, 764381700.00, -0.007600, 0.020800, 0.021400
2024/03/22 12:20:00, 764382000.00, 0.009500, 0.033300, -0.003000
2024/03/22 12:25:00, 764382300.00, -0.012500, 0.025600, 0.027500
2024/03/22 12:30:00, 764382600.00, 0.017600, 0.030100, -0.034400
2024/03/22 12:35:00, 764382900.00, -0.010500, 0.033400, 0.038700
2024/03/22 12:40:00, 764383200.00, 0.005400, 0.020100, -0.024800
2024/03/22 12:45:00, 764383500.00, 0.006500, 0.022600, 0.007100
2024/03/22 12:50:00, 764383800.00, -0.016000, 0.025000, 0.000100
2024/03/22 12:55:00, 764384100.00, -0.034800, 0.034300, -0.033600
2024/03/22 13:00:00, 764384400.00, -0.044800, 0.009100, -0.019700
2024/03/22 13:05:00, 764384700.00, -0.020600, 0.021400, 0.002100
2024/03/22 13:10:00, 764385000.00, -0.017200, 0.022100, -0.032200
2024/03/22 13:15:00, 764385300.00, 0.005900, 0.024200, -0.015300
2024/03/22 13:20:00, 764385600.00, -0.018800, 0.019100, -0.041300
2024/03/22 13:25:00, 764385900.00, 0.014600, 0.030200, -0.040700
2024/03/22 13:30:00, 764386200.00, 0.042100, 0.042400, -0.065600
2024/03/22 13:35:00, 764386500.00, -0.002500, 0.026300, -0.029900
2024/03/22 13:40:00, 764386800.00, 0.007600, 0.027600, -0.043800
2024/03/22 13:45:00, 764387100.00, 0.034500, 0.028300, -0.028800
2024/03/22 13:50:00, 764387400.00, 0.048300, 0.039600, -0.021800
2024/03/22 13:55:00, 764387700.00, 0.034000, 0.030400, -0.050000
2024/03/22 14:00:00, 764388000.00, 0.014200, 0.026500, -0.027500
2024/03/22 14:05:00, 764388300.00, 0.019800, 0.013500, -0.025700
2024/03/22 14:10:00, 764388600.00, -0.014700, 0.024800, -0.054200
2024/03/22 14:15:00, 764388900.00, 0.026100, 0.019900, -0.024600
2024/03/22 14:20:00, 764389200.00, 0.022000, 0.028400, 0.000400
2024/03/22 14:25:00, 764389500.00, 0.011600, 0.024000, -0.047400
2024/03/22 14:30:00, 764389800.00, 0.024600, 0.034800, -0.075100
2024/03/22 14:35:00, 764390100.00, 0.040900, 0.042100, -0.080400
2024/03/22 14:40:00, 764390400.00, 0.017600, 0.030800, -0.048100
2024/03/22 14:45:00, 764390700.00, 0.019800, 0.033600, -0.045200
2024/03/22 14:50:00, 764391000.00, 0.006500, 0.023800, -0.045400
2024/03/22 14:55:00, 764391300.00, 0.032000, 0.034400, -0.066900
2024/03/22 15:00:00, 764391600.00, 0.019400, 0.018800, -0.039800
2024/03/22 15:05:00, 764391900.00, 0.015100, 0.031400, -0.028400
2024/03/22 15:10:00, 764392200.00, 0.011900, 0.023200, -0.040900
2024/03/22 15:15:00, 764392500.00, 0.017700, 0.036400, -0.033900
2024/03/22 15:20:00, 764392800.00, 0.020700, 0.022000, -0.002100
2024/03/22 15:25:00, 764393100.00, 0.007300, 0.020300, -0.047000
2024/03/22 15:30:00, 764393400.00, 0.017800, 0.023900, -0.037700
2024/03/22 15:35:00, 764393700.00, -0.008500, 0.018700, -0.022900
2024/03/22 15:40:00, 764394000.00, 0.020700, 0.013300, -0.033700
2024/03/22 15:45:00, 764394300.00, 0.018700, 0.017200, -0.041700
2024/03/22 15:50:00, 764394600.00, -0.001600, 0.025900, -0.026000
2024/03/22 15:55:00, 764394900.00, -0.005600, -0.007000, -0.004400
2024/03/22 16:00:00, 764395200.00, 0.019400, 0.021200, -0.053000
2024/03/22 16:05:00, 764395500.00, 0.012500, -0.004100, -0.043900
2024/03/22 16:10:00, 764395800.00, 0.011700, 0.011200, -0.055700
2024/03/22 16:15:00, 764396100.00, 0.008400, 0.010600, -0.038200
2024/03/22 16:20:00, 764396400.00, -0.008100, 0.005400, -0.015200
2024/03/22 16:25:00, 764396700.00, -0.000200, -0.004900, -0.062900
2024/03/22 16:30:00, 764397000.00, 0.015800, 0.008600, -0.005300
2024/03/22 16:35:00, 764397300.00, 0.022100, 0.018400, -0.037500
2024/03/22 16:40:00, 764397600.00, 0.015400, 0.028500, -0.027600
2024/03/22 16:45:00, 764397900.00, 0.005700, 0.015900, 0.000400
2024/03/22 16:50:00, 764398200.00, 0.011300, 0.021300, -0.006800
2024/03/22 16:55:00, 764398500.00, 0.004000, 0.017000, 0.013800
2024/03/22 17:00:00, 764398800.00, 0.008800, 0.020000, -0.002600
2024/03/22 17:05:00, 764399100.00, 0.007900, 0.015100, -0.006700
2024/03/22 17:10:00, 764399400.00, -0.002500, 0.012800, 0.001600
2024/03/22 17:15:00, 764399700.00, 0.004800, 0.005400, 0.042900
2024/03/22 17:20:00, 764400000.00, 0.011700, 0.028800, -0.018600
2024/03/22 17:25:00, 764400300.00, 0.007300, 0.020800, 0.029400
2024/03/22 17:30:00, 764400600.00, 0.009300, 0.008500, 0.005200
2024/03/22 17:35:00, 764400900.00, 0.002200, 0.024500, 0.014900
2024/03/22 17:40:00, 764401200.00, 0.016800, 0.014500, 0.003300
2024/03/22 17:45:00, 764401500.00, -0.004600, 0.007100, -0.008100
2024/03/22 17:50:00, 764401800.00, 0.002300, 0.023600, -0.008200
2024/03/22 17:55:00, 764402100.00, 0.010700, 0.027800, -0.022600
2024/03/22 18:00:00, 764402400.00, 0.016100, 0.030800, -0.000700
2024/03/22 18:05:00, 764402700.00, -0.008100, 0.028800, 0.011900
2024/03/22 18:10:00, 764403000.00, 0.001800, 0.020500, 0.001100
2024/03/22 18:15:00, 764403300.00, 0.001300, 0.022800, -0.006000
2024/03/22 18:20:00, 764403600.00, 0.004100, 0.027700, -0.023700
2024/03/22 18:25:00, 764403900.00, 0.011300, 0.034900, -0.014800
2024/03/22 18:30:00, 764404200.00, 0.003100, 0.035300, -0.036100
2024/03/22 18:35:00, 764404500.00, 0.004000, 0.018900, 0.012900
2024/03/22 18:40:00, 764404800.00, -0.006600, 0.023900, -0.031800
2024/03/22 18:45:00, 764405100.00, -0.005200, 0.012600, 0.003300
2024/03/22 18:50:00, 764405400.00, -0.004100, 0.032300, -0.010100
2024/03/22 18:55:00, 764405700.00, 0.010000, 0.020400, -0.030900
2024/03/22 19:00:00, 764406000.00, 0.010500, 0.016700, 0.008400
2024/03/22 19:05:00, 764406300.00, 0.014100, 0.030200, -0.004300
2024/03/22 19:10:00, 764406600.00, 0.029500, 0.030800, -0.035600
2024/03/22 19:15:00, 764406900.00, 0.023200, 0.022900, 0.012500
2024/03/22 19:20:00, 764407200.00, -0.002800, 0.020700, -0.001600
2024/03/22 19:25:00, 764407500.00, 0.007500, 0.028700, 0.009600
2024/03/22 19:30:00, 764407800.00, -0.019300, 0.030100, -0.011400
2024/03/22 19:35:00, 764408100.00, 0.024100, 0.011300, -0.051200
2024/03/22 19:40:00, 764408400.00, 0.000600, 0.016500, -0.023500
2024/03/22 19:45:00, 764408700.00, 0.017300, 0.036800, -0.007700
2024/03/22 19:50:00, 764409000.00, 0.022400, 0.030900, 0.033200
2024/03/22 19:55:00, 764409300.00, 0.029800, 0.036100, 0.045600
2024/03/22 20:00:00, 764409600.00, 0.025600, 0.045500, 0.040300
2024/03/22 20:05:00, 764409900.00, 0.001400, 0.031700, 0.000500
2024/03/22 20:10:00, 764410200.00, -0.009900, 0.031300, 0.017700
2024/03/22 20:15:00, 764410500.00, -0.001500, 0.021300, -0.025700
2024/03/22 20:20:00, 764410800.00, -0.009800, 0.022700, -0.001300
2024/03/22 20:25:00, 764411100.00, -0.017800, 0.032400, -0.051200
2024/03/22 20:30:00, 764411400.00, -0.008500, 0.037000, 0.008100
2024/03/22 20:35:00, 764411700.00, -0.009100, 0.047900, -0.017700
2024/03/22 20:40:00, 764412000.00, 0.007500, 0.047500, -0.032300
2024/03/22 20:45:00, 764412300.00, 0.006300, 0.032400, 0.035000
2024/03/22 20:50:00, 764412600.00, 0.004500, 0.027700, 0.004100
2024/03/22 20:55:00, 764412900.00, -0.001600, 0.031200, -0.018900
2024/03/22 21:00:00, 764413200.00, 0.000800, 0.033700, -0.012300
2024/03/22 21:10:00, 764413800.00, 0.015200, 0.042000, -0.028300
2024/03/22 21:15:00, 764414100.00, -0.010800, 0.055200, -0.026100
2024/03/22 21:20:00, 764414400.00, 0.002400, 0.013000, -0.005300
2024/03/22 21:25:00, 764414700.00, -0.006700, 0.006600, -0.002000
2024/03/22 21:30:00, 764415000.00, -0.015900, 0.017300, -0.015900
2024/03/22 21:35:00, 764415300.00, -0.001400, 0.037600, -0.008800
2024/03/22 21:40:00, 764415600.00, 0.017800, 0.023200, -0.015600
2024/03/22 21:45:00, 764415900.00, -0.015600, 0.008200, -0.008900
2024/03/22 21:50:00, 764416200.00, 0.017400, 0.020300, -0.021300
2024/03/22 21:55:00, 764416500.00, 0.006000, 0.023400, -0.005200
2024/03/22 22:00:00, 764416800.00, 0.004400, 0.015300, -0.028000
2024/03/22 22:05:00, 764417100.00, 0.013800, 0.024800, -0.034400
2024/03/22 22:10:00, 764417400.00, 0.013500, 0.032400, -0.047400
2024/03/22 22:15:00, 764417700.00, -0.012600, 0.028700, -0.022800
2024/03/22 22:20:00, 764418000.00, 0.008700, 0.031700, -0.032700
2024/03/22 22:25:00, 764418300.00, -0.015700, 0.019800, 0.026700
2024/03/22 22:30:00, 764418600.00, -0.014300, 0.015500, -0.011400
2024/03/22 22:35:00, 764418900.00, -0.007900, 0.021400, -0.004400
2024/03/22 22:40:00, 764419200.00, -0.020500, 0.021500, -0.016000
2024/03/22 22:45:00, 764419500.00, -0.026500, 0.017000, -0.011800
2024/03/22 22:50:00, 764419800.00, -0.011700, 0.020900, -0.003700
2024/03/22 22:55:00, 764420100.00, -0.013500, 0.022800, -0.026000
2024/03/22 23:00:00, 764420400.00, -0.009600, 0.025400, -0.029800
2024/03/22 23:05:00, 764420700.00, -0.001100, 0.019200, -0.009800
2024/03/22 23:10:00, 764421000.00, 0.007000, 0.029700, -0.004400
2024/03/22 23:15:00, 764421300.00, -0.011100, 0.029600, -0.064200
2024/03/22 23:20:00, 764421600.00, -0.001600, 0.028200, -0.038100
2024/03/22 23:25:00, 764421900.00, 0.010800, 0.038400, -0.013300
2024/03/22 23:30:00, 764422200.00, -0.008500, 0.021000, -0.079200
2024/03/22 23:35:00, 764422500.00, -0.001200, 0.019600, -0.066200
2024/03/22 23:40:00, 764422800.00, -0.016200, 0.013400, -0.083300
2024/03/22 23:45:00, 764423100.00, -0.004700, 0.020900, -0.056600
2024/03/22 23:50:00, 764423400.00, 0.002200, 0.022700, -0.053900
2024/03/22 23:55:00, 764423700.00, 0.003000, 0.038000, -0.073500
2024/03/23 00:00:00, 764424000.00, -0.026100, -0.021900, -0.015300
2024/03/23 00:05:00, 764424300.00, -0.031200, -0.016200, -0.016000
2024/03/23 00:10:00, 764424600.00, -0.017900, -0.020300, -0.034200
2024/03/23 00:15:00, 764424900.00, -0.025500, -0.024700, -0.016000
2024/03/23 00:20:00, 764425200.00, -0.015400, -0.024700, 0.022500
2024/03/23 00:25:00, 764425500.00, -0.007800, -0.026200, -0.027200
2024/03/23 00:30:00, 764425800.00, 0.004800, -0.033900, -0.013100
2024/03/23 00:35:00, 764426100.00, -0.014200, -0.019000, -0.028700
2024/03/23 00:40:00, 764426400.00, -0.023200, -0.021500, 0.013500
2024/03/23 00:45:00, 764426700.00, -0.018100, -0.023600, -0.005000
2024/03/23 00:50:00, 764427000.00, -0.027700, -0.037400, -0.023100
2024/03/23 00:55:00, 764427300.00, 0.005500, -0.030700, 0.025500
2024/03/23 01:00:00, 764427600.00, 0.002400, -0.021900, -0.043400
2024/03/23 01:05:00, 764427900.00, -0.004800, -0.019200, 0.002600
2024/03/23 01:10:00, 764428200.00, -0.035800, -0.019200, -0.033700
2024/03/23 01:15:00, 764428500.00, 0.013600, -0.014800, -0.040300
2024/03/23 01:20:00, 764428800.00, -0.022700, -0.027900, 0.012800
2024/03/23 01:25:00, 764429100.00, -0.014800, -0.022400, -0.028000
2024/03/23 01:30:00, 764429400.00, -0.008100, -0.020900, -0.039900
2024/03/23 01:35:00, 764429700.00, -0.004300, -0.026800, -0.026400
2024/03/23 01:40:00, 764430000.00, -0.014600, -0.017000, -0.048100
2024/03/23 01:45:00, 764430300.00, 0.021900, -0.001600, -0.010700
2024/03/23 01:50:00, 764430600.00, 0.007200, -0.014100, -0.006600
2024/03/23 01:55:00, 764430900.00, -0.002800, -0.005600, -0.052900
2024/03/23 02:00:00, 764431200.00, -0.021000, -0.024500, -0.042300
2024/03/23 02:05:00, 764431500.00, 0.008700, -0.020200, -0.041700
2024/03/23 02:10:00, 764431800.00, 0.008900, -0.008200, -0.009700
2024/03/23 02:15:00, 764432100.00, -0.001600, -0.019600, 0.011000
2024/03/23 02:20:00, 764432400.00, -0.009300, -0.002100, -0.012100
2024/03/23 02:25:00, 764432700.00, 0.000000, -0.007300, -0.009500
2024/03/23 02:30:00, 764433000.00, -0.001500, -0.001100, 0.022800
2024/03/23 02:35:00, 764433300.00, 0.004200, 0.004900, -0.003800
2024/03/23 02:40:00, 764433600.00, 0.002800, 0.010800, -0.023000
2024/03/23 02:45:00, 764433900.00, 0.001700, 0.004300, -0.021200
2024/03/23 02:50:00, 764434200.00, -0.001700, 0.003400, -0.014600
2024/03/23 02:55:00, 764434500.00, -0.002300, 0.005900, -0.009000
2024/03/23 03:00:00, 764434800.00, -0.007100, 0.001500, 0.010800
2024/03/23 03:05:00, 764435100.00, 0.031100, -0.009000, 0.006800
2024/03/23 03:10:00, 764435400.00, -0.014100, -0.004900, 0.001600
2024/03/23 03:15:00, 764435700.00, -0.003300, -0.006600, -0.002800
2024/03/23 03:20:00, 764436000.00, 0.006900, 0.004700, -0.005800
2024/03/23 03:25:00, 764436300.00, -0.003600, 0.005700, -0.006800
2024/03/23 03:30:00, 764436600.00, -0.019500, -0.002700, -0.000900
2024/03/23 03:35:00, 764436900.00, -0.016200, 0.008100, 0.012400
2024/03/23 03:40:00, 764437200.00, -0.004400, -0.000700, 0.010900
2024/03/23 03:45:00, 764437500.00, -0.007900, 0.001000, 0.018300
2024/03/23 03:50:00, 764437800.00, -0.015100, -0.005400, 0.018600
2024/03/23 03:55:00, 764438100.00, -0.005800, 0.009900, -0.013600
2024/03/23 04:00:00, 764438400.00, -0.000300, 0.017200, 0.001000
2024/03/23 04:05:00, 764438700.00, -0.009400, 0.004700, 0.016000
2024/03/23 04:10:00, 764439000.00, -0.014100, -0.000600, 0.034000
2024/03/23 04:15:00, 764439300.00, 0.007100, 0.003500, -0.021400
2024/03/23 04:20:00, 764439600.00, -0.013100, -0.010300, 0.001600
2024/03/23 04:25:00, 764439900.00, 0.007200, 0.005600, -0.009600
2024/03/23 04:30:00, 764440200.00, -0.004800, 0.008200, -0.004300
2024/03/23 04:35:00, 764440500.00, -0.002600, 0.009100, 0.041000
2024/03/23 04:40:00, 764440800.00, -0.014300, 0.005100, 0.016500
2024/03/23 04:45:00, 764441100.00, -0.012400, -0.001200, 0.035800
2024/03/23 04:50:00, 764441400.00, -0.010200, 0.006100, -0.003400
2024/03/23 04:55:00, 764441700.00, -0.005100, -0.001000, 0.056400
2024/03/23 05:00:00, 764442000.00, 0.000800, 0.000400, 0.046500
2024/03/23 05:05:00, 764442300.00, 0.010300, -0.019700, 0.015500
2024/03/23 05:10:00, 764442600.00, 0.003100, 0.012800, 0.020300
2024/03/23 05:15:00, 764442900.00, -0.010400, 0.016600, 0.033500
2024/03/23 05:20:00, 764443200.00, -0.012300, 0.014000, 0.038000
2024/03/23 05:25:00, 764443500.00, -0.005200, 0.010500, 0.017100
2024/03/23 05:30:00, 764443800.00, -0.003100, 0.008700, 0.031100
2024/03/23 05:35:00, 764444100.00, 0.016100, 0.010700, 0.051000
2024/03/23 05:40:00, 764444400.00, -0.020600, 0.021400, -0.018800
2024/03/23 05:45:00, 764444700.00, -0.020100, 0.013300, 0.000900
2024/03/23 05:50:00, 764445000.00, -0.020000, 0.015200, 0.007500
2024/03/23 05:55:00, 764445300.00, -0.008900, 0.030400, -0.007300
2024/03/23 06:00:00, 764445600.00, 0.020300, 0.017400, 0.032400
2024/03/23 06:05:00, 764445900.00, 0.017200, 0.025400, -0.010000
2024/03/23 06:10:00, 764446200.00, -0.019100, 0.000600, -0.007800
2024/03/23 06:15:00, 764446500.00, -0.011000, 0.012100, 0.014200
2024/03/23 06:20:00, 764446800.00, -0.001400, 0.041600, -0.059800
2024/03/23 06:25:00, 764447100.00, 0.012000, 0.034500, -0.019900
2024/03/23 06:30:00, 764447400.00, -0.000500, 0.023100, 0.016400
2024/03/23 06:35:00, 764447700.00, -0.005200, 0.012000, 0.000000